Vertical_Velocity
12 -10 -7 14 9 8 6 0 3 5 4 -4 4 -3 -2 -2 -3 -2 -3 -0 -1 -1 -3 -1 -0 2 1 -3 -1 1 1 1 -0 -2 2 5 2 3 0 2 4 4 5 4
-2 -4 10 2 1 3 3 1 4 3 -8 1 -1 0 -2 -1 -1 -1 -4 -2 -1 -1 -1 -1 0 1 1 0 -3 -4 -0 1 0 -3 -1 -1 1 1 0 -2 -0 4 2 6
7 14 8 -4 2 1 4 1 6 2 -6 -0 2 -2 -0 -1 -1 -3 -1 -1 -1 -1 -2 -1 -1 -1 1 1 -1 -2 -1 -2 -1 1 2 -6 -0 -0 -2 1 4 1 2 -1
11 5 -4 -7 -1 4 -2 4 5 2 -5 -1 -1 -1 -1 -0 -3 -2 -2 -1 -1 -2 -2 -2 -0 0 -2 0 3 -2 -2 -0 1 0 -1 0 -4 5 -1 1 -1 -2 -2 -2
16 5 -1 -7 3 -2 7 -0 5 3 -6 -2 -2 -7 9 1 0 -2 -1 -4 -2 -2 -2 -3 0 -2 0 1 2 2 -2 -2 -1 1 -1 -1 -3 -1 -3 -0 0 -3 -2 -1
2 -2 -4 11 6 -2 5 2 1 7 -3 -13 5 -3 6 6 6 -1 -3 -2 -2 -1 -2 -4 -1 -1 -1 -1 1 3 3 0 -2 -3 1 3 2 -4 -3 -0 1 2 1 -3
9 3 5 4 0 -3 -1 2 6 0 -7 -9 2 -9 8 -1 -3 -1 -3 -0 -5 -2 -2 -3 -2 -4 -1 -1 -1 -1 1 1 -1 -3 -2 -1 2 1 -1 1 -3 1 3 2
3 -3 8 6 2 17 3 1 -1 1 -1 -4 3 -6 4 1 -0 -2 -1 2 -6 0 -2 -2 -3 -2 0 -1 -1 -2 -1 -1 1 -1 -2 -2 -3 -2 -1 -0 0 1 -1 1
3 1 -3 4 2 3 2 -20 20 2 8 0 1 -3 -8 3 1 -0 2 -3 -3 -1 -3 -0 -3 -2 -3 0 -2 -0 -2 -2 -2 1 0 -3 -3 -1 -2 -2 -0 -1 2 -0
7 1 7 6 -3 2 -3 11 -2 0 1 3 4 16 4 -4 3 1 -2 1 2 -3 -4 -1 -1 -2 -3 -1 -1 -2 -2 -2 -2 0 -0 -0 2 -0 -2 -4 -2 -1 -1 -0
-1 -1 7 -3 -7 6 6 -2 -4 9 1 2 2 3 20 8 -2 9 4 -0 -6 -6 2 1 -0 0 -2 -2 -1 -2 1 -2 -1 -3 -3 0 -2 -1 3 2 -2 -6 -4 -3
-2 -5 -9 7 9 -1 9 6 8 6 9 -0 4 4 1 3 -3 4 5 0 -0 2 -1 -1 -0 1 1 1 -1 -1 -3 -1 -1 -3 -1 -3 -3 -2 -1 0 0 -2 0 -1
-8 5 -2 9 0 4 -1 4 6 6 7 6 5 5 16 -0 -1 -1 0 0 3 2 -4 0 -2 -0 1 -2 0 -1 -3 -2 -3 -2 -2 -3 -2 1 1 -1 -3 -2 0 1
1 -1 -2 -1 23 9 -2 2 -0 3 1 13 7 13 19 4 5 4 -0 -3 -2 1 5 -2 0 -0 0 0 1 2 3 2 -2 -0 0 -2 -1 0 -2 -3 -4 -4 -1 -3
-1 2 -3 0 -7 -5 7 -2 5 2 1 5 8 8 -0 0 3 1 -6 1 -2 0 1 -1 -1 -4 -7 -5 -6 -2 1 2 -1 -4 -3 -1 1 -3 -3 -1 1 0 -4 -0
4 0 -1 -0 -0 1 -1 -1 2 4 2 5 3 -1 -0 -0 -11 -0 10 -3 -2 -1 -3 -3 -2 -5 -0 0 -3 -5 -3 -2 -4 -2 -1 -0 -1 0 -2 -3 -1 -3 -0 -2
11 3 5 -2 1 -1 -8 4 6 4 -0 3 2 9 -9 -7 -3 3 -2 -4 0 2 1 2 0 -3 -1 -1 -2 -2 -3 -5 -3 -1 1 -3 -3 -2 2 0 -1 -0 -1 -2
4 8 10 10 10 0 24 4 4 3 3 5 4 -2 1 -3 -4 5 -10 -6 1 1 1 1 -2 1 -1 0 2 1 -1 -2 -2 -1 1 1 -1 -3 -2 -2 0 2 -3 -1
7 4 -5 -14 -3 15 -1 -0 4 3 7 0 -3 -3 -4 -5 10 -12 -3 1 -4 -5 0 -4 1 1 2 -1 -5 -7 -2 -2 -3 4 1 1 -2 1 -6 -2 -1 2 -1 -3
-1 1 -1 -0 -1 -3 9 -9 4 4 12 -20 3 -0 -2 0 0 -12 12 -3 -1 -3 -3 -0 1 2 -1 -4 -2 -4 4 -3 -1 2 5 -2 -1 -2 -4 -1 0 0 -5 1
-3 0 -8 7 -8 -4 4 -11 0 5 -3 1 4 -7 1 2 2 4 1 -3 -5 2 -0 0 5 -0 -2 1 -7 -4 -1 2 -4 -2 4 0 -1 3 3 -3 -3 4 1 -3
3 -1 0 5 -4 -4 -5 -4 -1 -5 -5 4 -0 -1 1 2 3 0 4 0 0 -6 -5 1 -1 1 -1 2 0 0 -3 -12 11 11 0 5 7 2 1 3 -0 9 8 6
-5 5 7 -0 8 3 6 -1 5 5 2 0 -1 0 -1 0 -2 -3 -2 -3 1 -6 -5 -2 -3 -1 -2 -0 0 1 -1 2 2 7 4 5 5 3 1 1 2 1 -1 2
-1 15 2 3 2 14 -3 -2 8 3 2 4 5 2 2 1 -2 -1 -3 -1 -3 -3 -2 -5 -4 -5 1 -1 -0 -3 2 5 3 5 4 3 7 10 5 6 4 5 4 3
5 -3 1 4 4 -3 8 -8 8 -2 0 2 3 -4 0 -0 -3 -4 -8 -5 -3 -7 -4 -4 -6 -3 -4 -1 -1 -3 -3 2 2 2 2 13 2 11 5 1 -2 0 3 -2
6 -0 3 5 1 13 -9 -4 13 -5 -2 0 -2 -2 -3 -2 -3 -4 -4 -5 -3 -6 -5 -4 -4 -9 1 -6 -2 0 3 -2 0 -0 -3 -11 3 2 2 -5 -2 1 3 2
Height
5680 5685 5690 5700 5707 5712 5715 5719 5724 5725 5726 5726 5729 5731 5731 5732 5733 5730 5728 5727 5725 5725 5724 5724 5723 5722 5720 5718 5717 5715 5712 5709 5707 5707 5708 5707 5709 5711 5716 5719 5723 5729 5733 5737
5670 5674 5686 5693 5698 5701 5707 5711 5715 5718 5718 5722 5724 5726 5727 5728 5728 5727 5726 5724 5723 5722 5721 5721 5721 5720 5718 5716 5715 5714 5712 5710 5707 5706 5708 5709 5710 5711 5713 5717 5721 5724 5729 5732
5665 5673 5678 5684 5689 5694 5701 5705 5709 5711 5713 5718 5719 5721 5723 5724 5724 5723 5723 5723 5721 5719 5718 5718 5719 5718 5717 5715 5715 5713 5712 5709 5708 5706 5706 5709 5710 5711 5713 5714 5718 5722 5727 5730
5657 5665 5669 5674 5680 5688 5694 5701 5702 5702 5708 5712 5714 5717 5718 5720 5719 5719 5720 5720 5719 5717 5715 5715 5717 5716 5716 5714 5714 5713 5712 5710 5709 5709 5708 5709 5709 5712 5714 5715 5717 5721 5725 5728
5651 5656 5663 5667 5672 5683 5691 5692 5693 5694 5700 5705 5710 5713 5714 5716 5717 5716 5716 5714 5715 5714 5713 5713 5714 5714 5714 5714 5713 5713 5712 5711 5711 5710 5710 5710 5710 5712 5713 5715 5717 5719 5722 5725
5641 5648 5654 5660 5667 5672 5682 5683 5686 5688 5694 5696 5705 5707 5709 5712 5715 5712 5712 5712 5712 5711 5711 5710 5711 5711 5712 5712 5712 5712 5712 5711 5710 5711 5712 5712 5711 5712 5714 5715 5715 5717 5720 5721
5636 5640 5647 5653 5658 5665 5672 5676 5681 5684 5687 5691 5699 5699 5706 5706 5707 5707 5707 5707 5707 5708 5708 5707 5708 5708 5710 5710 5710 5710 5710 5711 5711 5710 5710 5711 5712 5713 5713 5714 5714 5717 5719 5721
5628 5634 5641 5645 5651 5657 5664 5673 5679 5682 5686 5688 5692 5689 5700 5700 5701 5702 5702 5703 5701 5703 5704 5704 5704 5705 5706 5708 5708 5708 5708 5709 5709 5710 5710 5710 5711 5711 5712 5713 5714 5715 5717 5719
5622 5627 5631 5636 5642 5649 5656 5659 5672 5673 5675 5681 5687 5687 5693 5696 5696 5697 5697 5698 5698 5698 5699 5701 5702 5702 5703 5704 5705 5706 5707 5707 5708 5708 5708 5709 5710 5710 5711 5712 5713 5714 5716 5717
5618 5621 5625 5628 5632 5640 5647 5656 5662 5663 5668 5672 5681 5684 5687 5688 5692 5689 5692 5693 5693 5693 5693 5695 5697 5698 5699 5700 5702 5704 5704 5704 5705 5705 5705 5706 5707 5707 5708 5709 5710 5712 5713 5714
5614 5616 5621 5623 5627 5633 5641 5644 5651 5659 5662 5668 5673 5680 5682 5680 5684 5687 5688 5689 5687 5687 5689 5690 5692 5694 5695 5696 5697 5699 5700 5701 5701 5702 5702 5703 5703 5704 5704 5704 5705 5707 5708 5709
5609 5610 5614 5619 5623 5626 5632 5638 5645 5651 5657 5660 5666 5670 5670 5673 5677 5679 5681 5683 5684 5684 5684 5684 5686 5688 5690 5691 5691 5692 5694 5695 5695 5696 5698 5699 5700 5701 5702 5701 5701 5701 5702 5703
5603 5606 5610 5618 5618 5621 5623 5631 5637 5643 5648 5651 5656 5663 5663 5662 5668 5671 5673 5676 5678 5677 5677 5679 5679 5681 5684 5686 5687 5687 5688 5689 5689 5691 5693 5694 5695 5696 5697 5696 5696 5696 5696 5697
5599 5603 5605 5611 5617 5620 5620 5623 5628 5633 5638 5645 5649 5655 5657 5656 5660 5663 5664 5666 5669 5672 5672 5672 5673 5674 5677 5679 5680 5681 5683 5683 5683 5684 5686 5688 5689 5690 5690 5689 5690 5691 5690 5691
5592 5597 5600 5602 5604 5609 5616 5617 5622 5627 5632 5637 5642 5643 5646 5647 5650 5653 5654 5661 5662 5664 5665 5666 5666 5665 5667 5669 5672 5674 5676 5677 5677 5677 5678 5681 5681 5681 5682 5683 5683 5682 5682 5682
5586 5589 5593 5595 5598 5603 5606 5611 5616 5620 5624 5629 5631 5632 5634 5637 5636 5642 5649 5651 5652 5655 5657 5658 5660 5660 5662 5662 5663 5664 5666 5668 5668 5669 5671 5672 5672 5673 5674 5675 5674 5674 5674 5673
5580 5584 5587 5590 5593 5596 5600 5605 5610 5614 5617 5620 5622 5626 5621 5623 5629 5633 5636 5638 5642 5645 5648 5650 5651 5652 5653 5653 5653 5654 5657 5657 5657 5659 5662 5662 5663 5663 5665 5665 5665 5666 5665 5664
5572 5577 5579 5584 5587 5591 5597 5598 5603 5606 5610 5612 5613 5613 5615 5617 5618 5624 5623 5625 5628 5631 5636 5639 5641 5642 5644 5644 5646 5647 5647 5647 5648 5649 5650 5652 5652 5652 5654 5654 5655 5655 5655 5655
5560 5566 5572 5577 5581 5586 5587 5590 5598 5601 5603 5602 5603 5603 5607 5608 5612 5612 5611 5616 5617 5618 5620 5624 5628 5632 5633 5634 5635 5636 5636 5637 5637 5638 5639 5641 5641 5641 5642 5643 5644 5644 5643 5644
5550 5556 5563 5567 5572 5576 5581 5581 5589 5593 5597 5589 5594 5596 5599 5600 5602 5603 5604 5603 5604 5605 5607 5610 5612 5614 5617 5620 5621 5623 5624 5625 5626 5627 5629 5629 5629 5629 5630 5632 5631 5631 5631 5633
5541 5547 5554 5560 5563 5569 5572 5571 5579 5585 5587 5582 5587 5587 5589 5592 5593 5594 5594 5593 5593 5594 5595 5596 5598 5599 5600 5602 5604 5607 5610 5612 5613 5612 5614 5615 5617 5617 5618 5618 5618 5621 5620 5620
5536 5541 5546 5551 5555 5559 5562 5564 5569 5572 5573 5577 5579 5581 5583 5584 5585 5585 5586 5585 5584 5583 5584 5585 5584 5585 5586 5587 5589 5591 5592 5594 5596 5600 5600 5601 5603 5603 5605 5606 5607 5607 5606 5605
5534 5537 5542 5547 5551 5554 5557 5557 5561 5565 5568 5571 5574 5576 5577 5577 5577 5577 5577 5576 5576 5574 5573 5571 5571 5570 5570 5571 5572 5574 5576 5578 5581 5583 5583 5586 5587 5589 5590 5591 5592 5593 5592 5591
5532 5534 5538 5543 5548 5550 5551 5555 5559 5561 5564 5566 5568 5569 5570 5570 5570 5570 5569 5568 5566 5564 5563 5561 5558 5556 5554 5555 5555 5557 5560 5562 5564 5567 5568 5570 5571 5574 5575 5575 5576 5576 5577 5576
5527 5529 5533 5537 5541 5543 5545 5547 5552 5554 5557 5559 5560 5561 5562 5562 5561 5561 5560 5559 5557 5555 5552 5549 5545 5543 5540 5539 5539 5540 5543 5546 5548 5550 5552 5554 5555 5556 5558 5558 5558 5558 5559 5559
5522 5525 5529 5533 5534 5538 5538 5542 5545 5546 5549 5550 5550 5551 5551 5551 5550 5550 5549 5547 5545 5544 5541 5537 5534 5530 5528 5525 5524 5524 5526 5530 5533 5536 5538 5539 5540 5539 5541 5544 5545 5544 5543 5543